This is the latest recevied weather packets stored in our database for station/object G6UYG-13. If no packets are shown the sender has not sent any weather packets the latest 10 day(s).
| Time | Temp. | Humidity | Pressure | Rain* | Wind** | Luminosity | Snow |
|---|---|---|---|---|---|---|---|
| 1777787506 | 10.56° C | 94% | 1007.1 hPa | 0 mm | - | 19 W/m² | - |
| 1777787086 | 10.56° C | 94% | 1007 hPa | 0 mm | - | 16 W/m² | - |
| 1777786666 | 10.56° C | 94% | 1007 hPa | 0 mm | - | 12 W/m² | - |
| 1777786246 | 10.56° C | 94% | 1006.9 hPa | 0 mm | - | 16 W/m² | - |
| 1777785826 | 10.56° C | 94% | 1006.8 hPa | 0 mm | - | 14 W/m² | - |
| 1777785406 | 10.56° C | 94% | 1006.7 hPa | 0 mm | - | 5 W/m² | - |
| 1777784986 | 10.56° C | 94% | 1006.6 hPa | 0 mm | - | 5 W/m² | - |
| 1777784566 | 10.56° C | 94% | 1006.5 hPa | 0 mm | - | 5 W/m² | - |
| 1777784146 | 10.56° C | 94% | 1006.5 hPa | 0 mm | - | 0 W/m² | - |
| 1777783726 | 10.56° C | 94% | 1006.5 hPa | 0 mm | - | 0 W/m² | - |
| 1777783306 | 10.56° C | 94% | 1006.6 hPa | 0 mm | - | 0 W/m² | - |
| 1777782886 | 10.56° C | 94% | 1006.7 hPa | 0 mm | - | 0 W/m² | - |
| 1777782466 | 10.56° C | 94% | 1006.6 hPa | 0 mm | - | 0 W/m² | - |
| 1777782046 | 10.56° C | 94% | 1006.7 hPa | 0 mm | - | 0 W/m² | - |
| 1777781626 | 10.56° C | 94% | 1006.7 hPa | 0 mm | - | 0 W/m² | - |
| 1777781206 | 10.56° C | 94% | 1006.7 hPa | 0 mm | - | 0 W/m² | - |
| 1777780786 | 10.56° C | 94% | 1006.8 hPa | 0 mm | - | 0 W/m² | - |
| 1777780366 | 10.56° C | 94% | 1006.7 hPa | 0 mm | - | 0 W/m² | - |
| 1777779946 | 10.56° C | 94% | 1006.8 hPa | 0 mm | - | 0 W/m² | - |
| 1777779526 | 10.56° C | 94% | 1006.8 hPa | 0 mm | - | 0 W/m² | - |
| 1777779106 | 10.56° C | 94% | 1006.8 hPa | 0 mm | - | 0 W/m² | - |
| 1777778686 | 10.56° C | 94% | 1006.8 hPa | 0 mm | - | 0 W/m² | - |
| 1777778266 | 10.56° C | 94% | 1006.8 hPa | 0 mm | - | 0 W/m² | - |
| 1777777846 | 10.56° C | 94% | 1006.7 hPa | 0 mm | - | 0 W/m² | - |
| 1777777426 | 10.56° C | 94% | 1006.9 hPa | 0 mm | - | 0 W/m² | - |
* Rain latest hour (hover to see other rain measurements)
** Current wind speed in m/s (hover to see current wind gust speed)